Previsão horária em Abertura

Hoje, 18 Maio, Terça-feira

Tempo Temperatura Precipitação Vento Pressão Humidade
00:00 +16°C° 0 mm 1 m/s 731 mmHg 60%
01:00 +15°C° 0 mm 1 m/s 731 mmHg 63%
02:00 +15°C° 0 mm 1 m/s 731 mmHg 65%
03:00 +14°C° 0 mm 1 m/s 731 mmHg 68%
04:00 +14°C° 0 mm 1 m/s 731 mmHg 68%
05:00 +14°C° 0 mm 1 m/s 732 mmHg 68%
06:00 +14°C° 0 mm 1 m/s 732 mmHg 68%
07:00 +18°C° 0 mm 1 m/s 732 mmHg 60%
08:00 +19°C° 0 mm 2 m/s 732 mmHg 52%
09:00 +23°C° 0 mm 2 m/s 732 mmHg 44%
10:00 +25°C° 0 mm 3 m/s 732 mmHg 39%
11:00 +26°C° 0 mm 3 m/s 732 mmHg 34%
12:00 +28°C° 0 mm 4 m/s 732 mmHg 30%
13:00 +29°C° 0 mm 5 m/s 732 mmHg 29%
14:00 +29°C° 0 mm 5 m/s 732 mmHg 29%
15:00 +30°C° 0 mm 5 m/s 731 mmHg 29%
16:00 +29°C° 0 mm 5 m/s 731 mmHg 33%
17:00 +28°C° 0 mm 5 m/s 731 mmHg 37%
18:00 +27°C° 0 mm 5 m/s 731 mmHg 41%
19:00 +25°C° 0 mm 5 m/s 731 mmHg 49%
20:00 +21°C° 0 mm 4 m/s 732 mmHg 58%
21:00 +19°C° 0 mm 3 m/s 732 mmHg 66%
22:00 +17°C° 0 mm 3 m/s 732 mmHg 69%
23:00 +16°C° 0 mm 3 m/s 732 mmHg 73%

Amanhã, 19 Maio, Quarta-feira

Tempo Temperatura Precipitação Vento Pressão Humidade
00:00 +15°C° 0 mm 2 m/s 732 mmHg 76%
01:00 +14°C° 0 mm 2 m/s 732 mmHg 76%
02:00 +14°C° 0 mm 2 m/s 732 mmHg 77%
03:00 +13°C° 0 mm 1 m/s 732 mmHg 77%
04:00 +13°C° 0 mm 1 m/s 732 mmHg 76%
05:00 +13°C° 0 mm 1 m/s 732 mmHg 76%
06:00 +13°C° 0 mm 1 m/s 732 mmHg 75%
07:00 +16°C° 0 mm 1 m/s 733 mmHg 66%
08:00 +20°C° 0 mm 1 m/s 733 mmHg 58%
09:00 +22°C° 0 mm 1 m/s 733 mmHg 49%
10:00 +24°C° 0 mm 1 m/s 733 mmHg 43%
11:00 +26°C° 0 mm 2 m/s 733 mmHg 37%
12:00 +28°C° 0 mm 2 m/s 733 mmHg 30%
13:00 +29°C° 0 mm 2 m/s 733 mmHg 27%
14:00 +30°C° 0 mm 3 m/s 732 mmHg 25%
15:00 +31°C° 0 mm 3 m/s 732 mmHg 22%
16:00 +30°C° 0 mm 3 m/s 732 mmHg 23%
17:00 +29°C° 0 mm 4 m/s 732 mmHg 24%
18:00 +29°C° 0 mm 4 m/s 732 mmHg 26%
19:00 +26°C° 0 mm 3 m/s 732 mmHg 31%
20:00 +24°C° 0 mm 2 m/s 732 mmHg 36%
21:00 +20°C° 0 mm 2 m/s 732 mmHg 41%
22:00 +19°C° 0 mm 2 m/s 732 mmHg 42%
23:00 +20°C° 0 mm 1 m/s 732 mmHg 44%

Depois de amanhã, 20 Maio, Quinta-feira

Tempo Temperatura Precipitação Vento Pressão Humidade
00:00 +19°C° 0 mm 1 m/s 732 mmHg 46%
01:00 +18°C° 0 mm 1 m/s 732 mmHg 47%
02:00 +18°C° 0 mm 1 m/s 732 mmHg 48%
03:00 +18°C° 0 mm 1 m/s 732 mmHg 50%
04:00 +18°C° 0 mm 1 m/s 732 mmHg 50%
05:00 +18°C° 0 mm 1 m/s 732 mmHg 50%
06:00 +18°C° 0 mm 1 m/s 732 mmHg 49%
07:00 +20°C° 0 mm 2 m/s 733 mmHg 43%
08:00 +24°C° 0 mm 2 m/s 733 mmHg 36%
09:00 +26°C° 0 mm 2 m/s 733 mmHg 30%
10:00 +28°C° 0 mm 2 m/s 733 mmHg 27%
11:00 +30°C° 0 mm 1 m/s 733 mmHg 25%
12:00 +32°C° 0 mm 1 m/s 732 mmHg 23%
13:00 +33°C° 0 mm 1 m/s 732 mmHg 21%
14:00 +33°C° 0 mm 1 m/s 731 mmHg 20%
15:00 +35°C° 0 mm 2 m/s 731 mmHg 19%
16:00 +34°C° 0 mm 2 m/s 731 mmHg 21%
17:00 +32°C° 0 mm 2 m/s 730 mmHg 24%
18:00 +32°C° 0 mm 2 m/s 730 mmHg 26%
19:00 +29°C° 0 mm 2 m/s 730 mmHg 31%
20:00 +27°C° 0 mm 2 m/s 730 mmHg 36%
21:00 +24°C° 0 mm 2 m/s 730 mmHg 41%
22:00 +23°C° 0 mm 1 m/s 730 mmHg 43%
23:00 +22°C° 0 mm 1 m/s 730 mmHg 44%

21 Maio, Sexta-feira

Tempo Temperatura Precipitação Vento Pressão Humidade
00:00 +22°C° 0 mm 1 m/s 729 mmHg 46%
01:00 +21°C° 0 mm 1 m/s 729 mmHg 47%
02:00 +21°C° 0 mm 1 m/s 729 mmHg 49%
03:00 +20°C° 0 mm 1 m/s 729 mmHg 50%
04:00 +20°C° 0 mm 1 m/s 729 mmHg 52%
05:00 +20°C° 0 mm 1 m/s 729 mmHg 54%
06:00 +20°C° 0 mm 1 m/s 729 mmHg 56%
07:00 +22°C° 0 mm 1 m/s 729 mmHg 51%
08:00 +24°C° 0 mm 2 m/s 729 mmHg 46%
09:00 +26°C° 0 mm 2 m/s 729 mmHg 41%
10:00 +27°C° 0 mm 3 m/s 729 mmHg 36%
11:00 +29°C° 0 mm 4 m/s 729 mmHg 31%
12:00 +30°C° 0 mm 5 m/s 729 mmHg 26%
13:00 +30°C° 0 mm 5 m/s 729 mmHg 23%
14:00 +32°C° 0 mm 6 m/s 729 mmHg 20%
15:00 +32°C° 0 mm 6 m/s 728 mmHg 17%
16:00 +30°C° 0 mm 6 m/s 728 mmHg 20%
17:00 +29°C° 0 mm 6 m/s 728 mmHg 23%
18:00 +28°C° 0 mm 6 m/s 728 mmHg 26%
19:00 +24°C° 0 mm 6 m/s 728 mmHg 36%
20:00 +22°C° 0 mm 5 m/s 729 mmHg 46%
21:00 +19°C° 0 mm 5 m/s 729 mmHg 55%
22:00 +17°C° 0 mm 4 m/s 729 mmHg 63%
23:00 +16°C° 0 mm 3 m/s 729 mmHg 70%

22 Maio, Sábado

Tempo Temperatura Precipitação Vento Pressão Humidade
00:00 +14°C° 0 mm 2 m/s 729 mmHg 78%
01:00 +13°C° 0 mm 2 m/s 729 mmHg 81%
02:00 +12°C° 0 mm 2 m/s 729 mmHg 85%
03:00 +10°C° 0 mm 2 m/s 729 mmHg 88%
04:00 +10°C° 0 mm 2 m/s 730 mmHg 85%
05:00 +10°C° 0 mm 2 m/s 730 mmHg 82%
06:00 +11°C° 0 mm 1 m/s 730 mmHg 79%
07:00 +13°C° 0 mm 2 m/s 730 mmHg 64%
08:00 +16°C° 0 mm 3 m/s 730 mmHg 49%
09:00 +18°C° 0 mm 3 m/s 730 mmHg 34%
10:00 +20°C° 0 mm 4 m/s 730 mmHg 29%
11:00 +21°C° 0 mm 4 m/s 730 mmHg 25%
12:00 +23°C° 0 mm 4 m/s 730 mmHg 21%
13:00 +23°C° 0 mm 4 m/s 730 mmHg 20%
14:00 +23°C° 0 mm 5 m/s 729 mmHg 20%
15:00 +25°C° 0 mm 5 m/s 729 mmHg 20%
16:00 +23°C° 0 mm 5 m/s 729 mmHg 23%
17:00 +22°C° 0 mm 5 m/s 729 mmHg 27%
18:00 +21°C° 0 mm 5 m/s 729 mmHg 30%
19:00 +19°C° 0 mm 4 m/s 729 mmHg 35%
20:00 +17°C° 0 mm 2 m/s 730 mmHg 39%
21:00 +15°C° 0 mm 1 m/s 730 mmHg 44%
22:00 +15°C° 0 mm 1 m/s 730 mmHg 47%
23:00 +14°C° 0 mm 1 m/s 730 mmHg 50%

23 Maio, Domingo

Tempo Temperatura Precipitação Vento Pressão Humidade
00:00 +13°C° 0 mm 2 m/s 730 mmHg 52%
01:00 +13°C° 0 mm 2 m/s 730 mmHg 54%
02:00 +12°C° 0 mm 2 m/s 729 mmHg 56%
03:00 +12°C° 0 mm 1 m/s 729 mmHg 57%
04:00 +12°C° 0 mm 1 m/s 729 mmHg 56%
05:00 +13°C° 0 mm 1 m/s 729 mmHg 55%
06:00 +13°C° 0 mm 1 m/s 729 mmHg 54%
07:00 +15°C° 0 mm 2 m/s 729 mmHg 48%
08:00 +17°C° 0 mm 2 m/s 730 mmHg 43%
09:00 +19°C° 0 mm 2 m/s 730 mmHg 37%
10:00 +21°C° 0 mm 2 m/s 730 mmHg 33%
11:00 +23°C° 0 mm 2 m/s 730 mmHg 29%
12:00 +25°C° 0 mm 2 m/s 730 mmHg 24%
13:00 +26°C° 0 mm 2 m/s 730 mmHg 24%
14:00 +26°C° 0 mm 3 m/s 729 mmHg 23%
15:00 +26°C° 0 mm 3 m/s 729 mmHg 22%
16:00 +25°C° 0 mm 3 m/s 729 mmHg 30%
17:00 +22°C° 0 mm 3 m/s 728 mmHg 38%
18:00 +21°C° 0 mm 4 m/s 728 mmHg 45%
19:00 +19°C° 0 mm 3 m/s 728 mmHg 50%
20:00 +18°C° 0 mm 3 m/s 728 mmHg 54%
21:00 +17°C° 0 mm 2 m/s 728 mmHg 58%
22:00 +17°C° 0 mm 2 m/s 728 mmHg 59%
23:00 +18°C° 0 mm 3 m/s 728 mmHg 60%
Mostrar mais

Necessitamos do seu Consentimento

A Meteoprog e os seus Fornecedores de Serviços podem armazenar e aceder a dados pessoais como cookies, identificadores do dispositivo ou outras tecnologias semelhantes existentes no seu dispositivo e processar estes dados para personalizar conteúdos e anúncios, assim como funcionalidades nas redes sociais e análise de tráfego.

  • Armazenar e/ou aceder a informações no seu dispositivo

    Os cookies, identificadores do dispositivo ou outras informações podem ser armazenados ou acedidos no seu dispositivo, para os fins acima indicados.

  • Anúncios e conteúdos personalizados, medição de anúncios e conteúdos, dados sobre o público-alvo e desenvolvimento de produtos

    Os anúncios e os conteúdos podem ser personalizados com base num perfil. Podem ser adicionados dados adicionais para uma maior personalização dos anúncios e dos conteúdos. A eficácia dos anúncios e dos conteúdos pode ser medida. Podem ser obtidas informações sobre o público que visualizou os anúncios e os conteúdos. Estes dados podem ser usados para desenvolver ou melhorar sistemas, softwares ou a experiência do utilizador.

Ao clicar em "Eu concordo”, permitirá o uso de cookies, identificadores do dispositivo e web beacons mencionados ou outras tecnologias semelhantes. As configurações do navegador do seu dispositivo podem ser alteradas.

Para certos fins, podem ser invocados interesses legítimos ao invés de consentimento. Pode ler mais informação sobre este assunto na nossa Política de Privacidade e Cookies.